Regional Weather Roundup
Issued by NWS Newport/Morehead, NC

Current Version | Previous Version | Graphics & Text | Print | Product List | Glossary Off
Versions: 1 2 3 4 5 6 7 8 9 10 11 12 13 14 15 16 17 18 19 20 21 22 23 24 25 26 27 28 29 30 31 32 33 34 35 36 37 38 39 40 41 42 43 44 45 46 47 48 49 50

506
ASUS42 KMHX 282125
RWRMHX
WEATHER ROUNDUP FOR EASTERN NORTH CAROLINA
NATIONAL WEATHER SERVICE NEWPORT/MOREHEAD CITY NC
500 PM EDT FRI APR 28 2017

NOTE: "FAIR" INDICATES FEW OR NO CLOUDS BELOW 12,000 FEET
WITH NO SIGNIFICANT WEATHER AND/OR OBSTRUCTIONS TO VISIBILITY

NCZ015>017-031-032-045>047-102-103-282200-
NORTH COAST

CITY           SKY/WX    TMP DP  RH WIND       PRES   REMARKS
EDENTON        MOSUNNY   87  73  61 S7        30.05F
ELIZABETH CITY SUNNY     86  74  67 S8        30.04F
KITTY HAWK     CLEAR     82  71  69 S6        30.05F
MANTEO         SUNNY     79  72  78 S15       30.07S

$$

NCZ045>047-081-094-103-104-282200-
CENTRAL COAST

CITY           SKY/WX    TMP DP  RH WIND       PRES   REMARKS
FRISCO         CLOUDY    79  72  79 SW13      30.11S HAZE

$$

NCZ095-097-098-100-101-282200-
SOUTHERN COAST

CITY           SKY/WX    TMP DP  RH WIND       PRES   REMARKS
BEAUFORT       MOSUNNY   80  75  84 S16       30.11S
CEDAR ISLAND   NOT AVBL
JACKSONVILLE   SUNNY     83  75  77 S12G21    30.08S
PINEY ISLAND   PTCLDY   N/A N/A N/A SW15G29   30.09S
WILMINGTON     PTSUNNY   82  73  74 SW15G22   30.10R


$$

NCZ011>013-027>030-043-044-078>080-089-090>093-098-282200-
COASTAL PLAIN

CITY           SKY/WX    TMP DP  RH WIND       PRES   REMARKS
AHOSKIE          N/A     85  68  56 S3        30.04S
CLINTON        SUNNY     88  71  57 S6        30.06S
ELIZABETHTOWN  MOSUNNY   88  72  57 S6        30.06S
GOLDSBORO      MOSUNNY   89  69  51 S7        30.04S
GREENVILLE     MOSUNNY   88  68  51 SW13      30.06F
HAVELOCK       PTSUNNY   82  72  71 SW22G28   30.10S
KENANSVILLE    MOSUNNY   88  72  58 S6        30.06S
KINSTON        MOSUNNY   90  68  48 SW12      30.06F
NEW BERN       SUNNY     85  74  69 SW15      30.08S
RICHLANDS      PTSUNNY   86  73  65 S15       30.08S
ROCKY MOUNT    MOSUNNY   87  69  54 SW10      30.04F
WASHINGTON     SUNNY     87  73  62 S12       30.06S
WHITEVILLE     MOSUNNY   86  74  68 S12G17    30.07S

$$

AMZ130-135-150-152-154-156-158-170-250-252-270-ANZ085-086-088-633-658-670-282200-
MARINE OBSERVATIONS

STATION/POSITION TIME  TEMP    WIND        PRES    WAVE   SWELL
                       AIR SEA DIR/SP/G            HT/PER HT/PER
                 (UTC) (F)     (DEG/KT/KT) (MB)    (FT/S) (FT/S)
CHESAPEAKE LIGHT NOT AVBL
64 E VA BEACH    2050   62 57  200/ 10/ 12 1019.0    5/ 8   5/ 8
DUCK             2100   82 58  200/ 12/ 15 1017.2
2 E DUCK         2100      64                N/A     2/ 8
OREGON INLET     2100   75 76  180/ 18/ 22 1018.7
13E OREGON INLT  2048      62                N/A     4/ 8   2/11
HATTERAS CG      2100   77 72  200/  9/ 14 1019.3
DIAMOND BUOY     2050   78 76  210/ 17/ 19 1019.6    5/ 8   3/ 8
CAPE LOOKOUT     2100   76     200/ 12/ 17 1019.5
BEAUFORT LAB     2100   76 72  200/ 13/ 17 1018.9
30 SE NEW RVR IN 2108   74     210/ 10/ 14 1020.2
30 SE NEW RVR IN 2043      73                N/A     5/ 6
27 SE WRIGHTSVLE 2108   75 73  190/ 10/ 16 1019.1
5 SE WRIGHTSVLE  2108   74 72  190/  8/ 12 1019.7
225 S CAPE HAT   2050   75 76  170/ 10/ 12 1022.4    4/ 7   3/ 7
41 SE CHARLESTON 2110   76 75  180/ 10/ 12 1019.4

$$




USA.gov is the U.S. government's official web portal to all federal, state and local government web resources and services.